Year,Month,Day,Hour,Minute,Value (Times are PST for temperature in C)
2014,08,02,00,00,19.70
2014,08,02,00,01,19.70
2014,08,02,00,02,19.70
2014,08,02,00,03,19.70
2014,08,02,00,04,19.70
2014,08,02,00,05,19.70
2014,08,02,00,06,19.70
2014,08,02,00,07,19.70
2014,08,02,00,08,19.70
2014,08,02,00,09,19.70
2014,08,02,00,10,19.70
2014,08,02,00,11,19.70
2014,08,02,00,12,19.70
2014,08,02,00,13,19.70
2014,08,02,00,14,19.70
2014,08,02,00,15,19.70
2014,08,02,00,16,19.70
2014,08,02,00,17,19.70
2014,08,02,00,18,19.70
2014,08,02,00,19,19.70
2014,08,02,00,20,19.70
2014,08,02,00,21,19.70
2014,08,02,00,22,19.70
2014,08,02,00,23,19.70
2014,08,02,00,24,19.70
2014,08,02,00,25,19.80
2014,08,02,00,26,19.80
2014,08,02,00,27,19.80
2014,08,02,00,28,19.90
2014,08,02,00,29,19.90
2014,08,02,00,30,19.90
2014,08,02,00,31,19.90
2014,08,02,00,32,19.90
2014,08,02,00,33,19.90
2014,08,02,00,34,19.90
2014,08,02,00,35,19.90
2014,08,02,00,36,19.90
2014,08,02,00,37,19.90
2014,08,02,00,38,19.90
2014,08,02,00,39,19.90
2014,08,02,00,40,19.90
2014,08,02,00,41,19.90
2014,08,02,00,42,19.90
2014,08,02,00,43,19.90
2014,08,02,00,44,20.00
2014,08,02,00,45,20.10
2014,08,02,00,46,20.10
2014,08,02,00,47,20.20
2014,08,02,00,48,20.20
2014,08,02,00,49,20.20
2014,08,02,00,50,20.10
2014,08,02,00,51,20.10
2014,08,02,00,52,20.10
2014,08,02,00,53,20.10
2014,08,02,00,54,20.10
2014,08,02,00,55,20.10
2014,08,02,00,56,20.10
2014,08,02,00,57,20.10
2014,08,02,00,58,20.10
2014,08,02,00,59,20.10
2014,08,02,01,00,20.10
2014,08,02,01,01,20.10
2014,08,02,01,02,20.10
2014,08,02,01,03,20.10
2014,08,02,01,04,20.00
2014,08,02,01,05,19.90
2014,08,02,01,06,19.90
2014,08,02,01,07,19.90
2014,08,02,01,08,19.90
2014,08,02,01,09,19.90
2014,08,02,01,10,19.90
2014,08,02,01,11,19.90
2014,08,02,01,12,19.90
2014,08,02,01,13,19.90
2014,08,02,01,14,19.90
2014,08,02,01,15,19.90
2014,08,02,01,16,20.00
2014,08,02,01,17,20.10
2014,08,02,01,18,20.10
2014,08,02,01,19,20.10
2014,08,02,01,20,20.10
2014,08,02,01,21,20.00
2014,08,02,01,22,19.90
2014,08,02,01,23,19.90
2014,08,02,01,24,19.90
2014,08,02,01,25,19.80
2014,08,02,01,26,19.80
2014,08,02,01,27,19.70
2014,08,02,01,28,19.60
2014,08,02,01,29,19.50
2014,08,02,01,30,19.30
2014,08,02,01,31,19.20
2014,08,02,01,32,19.20
2014,08,02,01,33,19.10
2014,08,02,01,34,19.10
2014,08,02,01,35,19.10
2014,08,02,01,36,19.00
2014,08,02,01,37,18.90
2014,08,02,01,38,18.90
2014,08,02,01,39,18.90
2014,08,02,01,40,18.90
2014,08,02,01,41,18.80
2014,08,02,01,42,18.60
2014,08,02,01,43,18.40
2014,08,02,01,44,18.20
2014,08,02,01,45,18.20
2014,08,02,01,46,18.10
2014,08,02,01,47,18.00
2014,08,02,01,48,17.90
2014,08,02,01,49,17.90
2014,08,02,01,50,17.90
2014,08,02,01,51,17.90
2014,08,02,01,52,17.80
2014,08,02,01,53,17.80
2014,08,02,01,54,17.80
2014,08,02,01,55,17.70
2014,08,02,01,56,17.70
2014,08,02,01,57,17.70
2014,08,02,01,58,17.70
2014,08,02,01,59,17.60
2014,08,02,02,00,17.60
2014,08,02,02,01,17.60
2014,08,02,02,02,17.50
2014,08,02,02,03,17.50
2014,08,02,02,04,17.40
2014,08,02,02,05,17.40
2014,08,02,02,06,17.40
2014,08,02,02,07,17.30
2014,08,02,02,08,17.30
2014,08,02,02,09,17.30
2014,08,02,02,10,17.30
2014,08,02,02,11,17.30
2014,08,02,02,12,17.30
2014,08,02,02,13,17.20
2014,08,02,02,14,17.20
2014,08,02,02,15,17.20
2014,08,02,02,16,17.20
2014,08,02,02,17,17.10
2014,08,02,02,18,17.10
2014,08,02,02,19,17.10
2014,08,02,02,20,17.00
2014,08,02,02,21,17.00
2014,08,02,02,22,17.00
2014,08,02,02,23,16.90
2014,08,02,02,24,16.90
2014,08,02,02,25,16.90
2014,08,02,02,26,16.90
2014,08,02,02,27,16.80
2014,08,02,02,28,16.80
2014,08,02,02,29,16.80
2014,08,02,02,30,16.80
2014,08,02,02,31,16.80
2014,08,02,02,32,16.80
2014,08,02,02,33,16.80
2014,08,02,02,34,16.80
2014,08,02,02,35,16.80
2014,08,02,02,36,16.80
2014,08,02,02,37,16.80
2014,08,02,02,38,16.80
2014,08,02,02,39,16.90
2014,08,02,02,40,16.90
2014,08,02,02,41,16.90
2014,08,02,02,42,17.00
2014,08,02,02,43,17.00
2014,08,02,02,44,17.00
2014,08,02,02,45,17.00
2014,08,02,02,46,17.00
2014,08,02,02,47,16.90
2014,08,02,02,48,16.90
2014,08,02,02,49,16.90
2014,08,02,02,50,16.90
2014,08,02,02,51,16.90
2014,08,02,02,52,16.90
2014,08,02,02,53,16.90
2014,08,02,02,54,16.90
2014,08,02,02,55,16.90
2014,08,02,02,56,16.90
2014,08,02,02,57,16.90
2014,08,02,02,58,16.90
2014,08,02,02,59,16.90
2014,08,02,03,00,16.80
2014,08,02,03,01,16.80
2014,08,02,03,02,16.80
2014,08,02,03,03,16.70
2014,08,02,03,04,16.70
2014,08,02,03,05,16.70
2014,08,02,03,06,16.70
2014,08,02,03,07,16.70
2014,08,02,03,08,16.70
2014,08,02,03,09,16.70
2014,08,02,03,10,16.70
2014,08,02,03,11,16.60
2014,08,02,03,12,16.60
2014,08,02,03,13,16.60
2014,08,02,03,14,16.60
2014,08,02,03,15,16.60
2014,08,02,03,16,16.60
2014,08,02,03,17,16.40
2014,08,02,03,18,16.50
2014,08,02,03,19,16.60
2014,08,02,03,20,16.60
2014,08,02,03,21,16.60
2014,08,02,03,22,16.70
2014,08,02,03,23,16.70
2014,08,02,03,24,16.70
2014,08,02,03,25,16.70
2014,08,02,03,26,16.70
2014,08,02,03,27,16.70
2014,08,02,03,28,16.70
2014,08,02,03,29,16.70
2014,08,02,03,30,16.70
2014,08,02,03,31,16.70
2014,08,02,03,32,16.70
2014,08,02,03,33,16.70
2014,08,02,03,34,16.70
2014,08,02,03,35,16.70
2014,08,02,03,36,16.70
2014,08,02,03,37,16.70
2014,08,02,03,38,16.70
2014,08,02,03,39,16.70
2014,08,02,03,40,16.70
2014,08,02,03,41,16.70
2014,08,02,03,42,16.70
2014,08,02,03,43,16.70
2014,08,02,03,44,16.70
2014,08,02,03,45,16.70
2014,08,02,03,46,16.60
2014,08,02,03,47,16.60
2014,08,02,03,48,16.60
2014,08,02,03,49,16.60
2014,08,02,03,50,16.60
2014,08,02,03,51,16.60
2014,08,02,03,52,16.40
2014,08,02,03,53,16.40
2014,08,02,03,54,16.40
2014,08,02,03,55,16.40
2014,08,02,03,56,16.40
2014,08,02,03,57,16.40
2014,08,02,03,58,16.40
2014,08,02,03,59,16.40
2014,08,02,04,00,16.40
2014,08,02,04,01,16.40
2014,08,02,04,02,16.40
2014,08,02,04,03,16.40
2014,08,02,04,04,16.40
2014,08,02,04,05,16.40
2014,08,02,04,06,16.40
2014,08,02,04,07,16.40
2014,08,02,04,08,16.40
2014,08,02,04,09,16.40
2014,08,02,04,10,16.40
2014,08,02,04,11,16.40
2014,08,02,04,12,16.40
2014,08,02,04,13,16.60
2014,08,02,04,14,16.60
2014,08,02,04,15,16.60
2014,08,02,04,16,16.60
2014,08,02,04,17,16.60
2014,08,02,04,18,16.60
2014,08,02,04,19,16.60
2014,08,02,04,20,16.60
2014,08,02,04,21,16.60
2014,08,02,04,22,16.60
2014,08,02,04,23,16.60
2014,08,02,04,24,16.60
2014,08,02,04,25,16.60
2014,08,02,04,26,16.60
2014,08,02,04,27,16.60
2014,08,02,04,28,16.60
2014,08,02,04,29,16.70
2014,08,02,04,30,16.70
2014,08,02,04,31,16.70
2014,08,02,04,32,16.70
2014,08,02,04,33,16.70
2014,08,02,04,34,16.70
2014,08,02,04,35,16.80
2014,08,02,04,36,16.80
2014,08,02,04,37,16.80
2014,08,02,04,38,16.80
2014,08,02,04,39,16.80
2014,08,02,04,40,16.90
2014,08,02,04,41,16.90
2014,08,02,04,42,16.90
2014,08,02,04,43,16.90
2014,08,02,04,44,16.90
2014,08,02,04,45,16.90
2014,08,02,04,46,16.90
2014,08,02,04,47,16.90
2014,08,02,04,48,17.00
2014,08,02,04,49,17.00
2014,08,02,04,50,17.00
2014,08,02,04,51,17.10
2014,08,02,04,52,17.10
2014,08,02,04,53,17.10
2014,08,02,04,54,17.10
2014,08,02,04,55,17.10
2014,08,02,04,56,17.20
2014,08,02,04,57,17.20
2014,08,02,04,58,17.20
2014,08,02,04,59,17.20
2014,08,02,05,00,17.20
2014,08,02,05,01,17.20
2014,08,02,05,02,17.10
2014,08,02,05,03,17.10
2014,08,02,05,04,17.10
2014,08,02,05,05,17.10
2014,08,02,05,06,17.00
2014,08,02,05,07,17.00
2014,08,02,05,08,17.00
2014,08,02,05,09,17.00
2014,08,02,05,10,16.90
2014,08,02,05,11,16.90
2014,08,02,05,12,16.90
2014,08,02,05,13,16.90
2014,08,02,05,14,16.90
2014,08,02,05,15,16.90
2014,08,02,05,16,16.90
2014,08,02,05,17,16.90
2014,08,02,05,18,16.90
2014,08,02,05,19,16.90
2014,08,02,05,20,16.90
2014,08,02,05,21,16.90
2014,08,02,05,22,16.90
2014,08,02,05,23,16.90
2014,08,02,05,24,16.90
2014,08,02,05,25,16.90
2014,08,02,05,26,16.90
2014,08,02,05,27,16.90
2014,08,02,05,28,16.90
2014,08,02,05,29,16.90
2014,08,02,05,30,17.00
2014,08,02,05,31,17.00
2014,08,02,05,32,17.00
2014,08,02,05,33,17.00
2014,08,02,05,34,17.00
2014,08,02,05,35,17.10
2014,08,02,05,36,17.10
2014,08,02,05,37,17.10
2014,08,02,05,38,17.10
2014,08,02,05,39,17.10
2014,08,02,05,40,17.10
2014,08,02,05,41,17.10
2014,08,02,05,42,17.10
2014,08,02,05,43,17.10
2014,08,02,05,44,17.10
2014,08,02,05,45,17.10
2014,08,02,05,46,17.10
2014,08,02,05,47,17.10
2014,08,02,05,48,17.10
2014,08,02,05,49,17.00
2014,08,02,05,50,17.00
2014,08,02,05,51,17.00
2014,08,02,05,52,17.00
2014,08,02,05,53,17.00
2014,08,02,05,54,17.00
2014,08,02,05,55,17.00
2014,08,02,05,56,17.00
2014,08,02,05,57,17.10
2014,08,02,05,58,17.10
2014,08,02,05,59,17.10
2014,08,02,06,00,17.10
2014,08,02,06,01,17.10
2014,08,02,06,02,17.10
2014,08,02,06,03,17.00
2014,08,02,06,04,17.00
2014,08,02,06,05,17.00
2014,08,02,06,06,17.00
2014,08,02,06,07,16.90
2014,08,02,06,08,16.90
2014,08,02,06,09,16.90
2014,08,02,06,10,16.80
2014,08,02,06,11,16.80
2014,08,02,06,12,16.80
2014,08,02,06,13,16.70
2014,08,02,06,14,16.70
2014,08,02,06,15,16.70
2014,08,02,06,16,16.70
2014,08,02,06,17,16.70
2014,08,02,06,18,16.70
2014,08,02,06,19,16.70
2014,08,02,06,20,16.70
2014,08,02,06,21,16.70
2014,08,02,06,22,16.70
2014,08,02,06,23,16.70
2014,08,02,06,24,16.60
2014,08,02,06,25,16.60
2014,08,02,06,26,16.60
2014,08,02,06,27,16.60
2014,08,02,06,28,16.60
2014,08,02,06,29,16.60
2014,08,02,06,30,16.60
2014,08,02,06,31,16.60
2014,08,02,06,32,16.60
2014,08,02,06,33,16.60
2014,08,02,06,34,16.60
2014,08,02,06,35,16.60
2014,08,02,06,36,16.70
2014,08,02,06,37,16.70
2014,08,02,06,38,16.70
2014,08,02,06,39,16.70
2014,08,02,06,40,16.70
2014,08,02,06,41,16.70
2014,08,02,06,42,16.80
2014,08,02,06,43,16.80
2014,08,02,06,44,16.90
2014,08,02,06,45,16.90
2014,08,02,06,46,17.00
2014,08,02,06,47,17.00
2014,08,02,06,48,17.00
2014,08,02,06,49,17.10
2014,08,02,06,50,17.20
2014,08,02,06,51,17.20
2014,08,02,06,52,17.30
2014,08,02,06,53,17.40
2014,08,02,06,54,17.50
2014,08,02,06,55,17.50
2014,08,02,06,56,17.60
2014,08,02,06,57,17.60
2014,08,02,06,58,17.70
2014,08,02,06,59,17.70
2014,08,02,07,00,17.80
2014,08,02,07,01,17.80
2014,08,02,07,02,17.90
2014,08,02,07,03,17.90
2014,08,02,07,04,18.00
2014,08,02,07,05,18.10
2014,08,02,07,06,18.10
2014,08,02,07,07,18.10
2014,08,02,07,08,18.20
2014,08,02,07,09,18.20
2014,08,02,07,10,18.20
2014,08,02,07,11,18.20
2014,08,02,07,12,18.20
2014,08,02,07,13,18.40
2014,08,02,07,14,18.50
2014,08,02,07,15,18.60
2014,08,02,07,16,18.70
2014,08,02,07,17,18.90
2014,08,02,07,18,19.00
2014,08,02,07,19,19.10
2014,08,02,07,20,19.20
2014,08,02,07,21,19.30
2014,08,02,07,22,19.40
2014,08,02,07,23,19.60
2014,08,02,07,24,19.60
2014,08,02,07,25,19.80
2014,08,02,07,26,19.90
2014,08,02,07,27,19.90
2014,08,02,07,28,20.00
2014,08,02,07,29,20.10
2014,08,02,07,30,20.10
2014,08,02,07,31,20.20
2014,08,02,07,32,20.20
2014,08,02,07,33,20.20
2014,08,02,07,34,20.20
2014,08,02,07,35,20.30
2014,08,02,07,36,20.40
2014,08,02,07,37,20.50
2014,08,02,07,38,20.50
2014,08,02,07,39,20.60
2014,08,02,07,40,20.70
2014,08,02,07,41,20.80
2014,08,02,07,42,20.80
2014,08,02,07,43,20.90
2014,08,02,07,44,21.00
2014,08,02,07,45,21.00
2014,08,02,07,46,21.10
2014,08,02,07,47,21.30
2014,08,02,07,48,21.30
2014,08,02,07,49,21.30
2014,08,02,07,50,21.40
2014,08,02,07,51,21.50
2014,08,02,07,52,21.60
2014,08,02,07,53,21.60
2014,08,02,07,54,21.60
2014,08,02,07,55,21.60
2014,08,02,07,56,21.60
2014,08,02,07,57,21.60
2014,08,02,07,58,21.50
2014,08,02,07,59,21.40
2014,08,02,08,00,21.30
2014,08,02,08,01,21.30
2014,08,02,08,02,21.30
2014,08,02,08,03,21.30
2014,08,02,08,04,21.30
2014,08,02,08,05,21.30
2014,08,02,08,06,21.30
2014,08,02,08,07,21.40
2014,08,02,08,08,21.50
2014,08,02,08,09,21.60
2014,08,02,08,10,21.70
2014,08,02,08,11,21.80
2014,08,02,08,12,21.80
2014,08,02,08,13,21.90
2014,08,02,08,14,22.00
2014,08,02,08,15,22.00
2014,08,02,08,16,22.10
2014,08,02,08,17,22.10
2014,08,02,08,18,22.20
2014,08,02,08,19,22.20
2014,08,02,08,20,22.20
2014,08,02,08,21,22.30
2014,08,02,08,22,22.30
2014,08,02,08,23,22.30
2014,08,02,08,24,22.40
2014,08,02,08,25,22.40
2014,08,02,08,26,22.40
2014,08,02,08,27,22.40
2014,08,02,08,28,22.30
2014,08,02,08,29,22.30
2014,08,02,08,30,22.30
2014,08,02,08,31,22.30
2014,08,02,08,32,22.30
2014,08,02,08,33,22.30
2014,08,02,08,34,22.20
2014,08,02,08,35,22.20
2014,08,02,08,36,22.10
2014,08,02,08,37,22.00
2014,08,02,08,38,21.80
2014,08,02,08,39,21.80
2014,08,02,08,40,21.70
2014,08,02,08,41,21.60
2014,08,02,08,42,21.60
2014,08,02,08,43,21.60
2014,08,02,08,44,21.60
2014,08,02,08,45,21.70
2014,08,02,08,46,21.60
2014,08,02,08,47,21.60
2014,08,02,08,48,21.60
2014,08,02,08,49,21.60
2014,08,02,08,50,21.60
2014,08,02,08,51,21.60
2014,08,02,08,52,21.50
2014,08,02,08,53,21.40
2014,08,02,08,54,21.30
2014,08,02,08,55,21.30
2014,08,02,08,56,21.30
2014,08,02,08,57,21.30
2014,08,02,08,58,21.30
2014,08,02,08,59,21.30
2014,08,02,09,00,21.40
2014,08,02,09,01,21.40
2014,08,02,09,02,21.50
2014,08,02,09,03,21.60
2014,08,02,09,04,21.50
2014,08,02,09,05,21.40
2014,08,02,09,06,21.40
2014,08,02,09,07,21.40
2014,08,02,09,08,21.40
2014,08,02,09,09,21.30
2014,08,02,09,10,21.30
2014,08,02,09,11,21.30
2014,08,02,09,12,21.30
2014,08,02,09,13,21.30
2014,08,02,09,14,21.40
2014,08,02,09,15,21.40
2014,08,02,09,16,21.40
2014,08,02,09,17,21.50
2014,08,02,09,18,21.50
2014,08,02,09,19,21.60
2014,08,02,09,20,21.60
2014,08,02,09,21,21.60
2014,08,02,09,22,21.60
2014,08,02,09,23,21.70
2014,08,02,09,24,21.60
2014,08,02,09,25,21.50
2014,08,02,09,26,21.30
2014,08,02,09,27,21.20
2014,08,02,09,28,21.10
2014,08,02,09,29,21.00
2014,08,02,09,30,21.00
2014,08,02,09,31,20.90
2014,08,02,09,32,21.00
2014,08,02,09,33,21.00
2014,08,02,09,34,21.00
2014,08,02,09,35,21.10
2014,08,02,09,36,21.10
2014,08,02,09,37,21.10
2014,08,02,09,38,21.20
2014,08,02,09,39,21.30
2014,08,02,09,40,21.30
2014,08,02,09,41,21.30
2014,08,02,09,42,21.50
2014,08,02,09,43,21.60
2014,08,02,09,44,21.60
2014,08,02,09,45,21.60
2014,08,02,09,46,21.60
2014,08,02,09,47,21.60
2014,08,02,09,48,21.60
2014,08,02,09,49,21.60
2014,08,02,09,50,21.60
2014,08,02,09,51,21.60
2014,08,02,09,52,21.70
2014,08,02,09,53,21.70
2014,08,02,09,54,21.80
2014,08,02,09,55,21.90
2014,08,02,09,56,22.00
2014,08,02,09,57,22.10
2014,08,02,09,58,22.20
2014,08,02,09,59,22.30
2014,08,02,10,00,22.30
2014,08,02,10,01,22.30
2014,08,02,10,02,22.30
2014,08,02,10,03,22.30
2014,08,02,10,04,22.30
2014,08,02,10,05,22.30
2014,08,02,10,06,22.20
2014,08,02,10,07,22.30
2014,08,02,10,08,22.30
2014,08,02,10,09,22.20
2014,08,02,10,10,22.00
2014,08,02,10,11,22.00
2014,08,02,10,12,22.00
2014,08,02,10,13,22.00
2014,08,02,10,14,22.00
2014,08,02,10,15,22.00
2014,08,02,10,16,22.00
2014,08,02,10,17,22.00
2014,08,02,10,18,22.00
2014,08,02,10,19,22.00
2014,08,02,10,20,22.10
2014,08,02,10,21,22.10
2014,08,02,10,22,22.00
2014,08,02,10,23,21.90
2014,08,02,10,24,21.80
2014,08,02,10,25,21.80
2014,08,02,10,26,21.90
2014,08,02,10,27,22.00
2014,08,02,10,28,22.10
2014,08,02,10,29,22.20
2014,08,02,10,30,22.10
2014,08,02,10,31,22.20
2014,08,02,10,32,22.30
2014,08,02,10,33,22.30
2014,08,02,10,34,22.30
2014,08,02,10,35,22.30
2014,08,02,10,36,22.20
2014,08,02,10,37,22.10
2014,08,02,10,38,22.10
2014,08,02,10,39,22.10
2014,08,02,10,40,22.00
2014,08,02,10,41,21.90
2014,08,02,10,42,21.80
2014,08,02,10,43,21.60
2014,08,02,10,44,21.50
2014,08,02,10,45,21.40
2014,08,02,10,46,21.40
2014,08,02,10,47,21.60
2014,08,02,10,48,21.80
2014,08,02,10,49,21.80
2014,08,02,10,50,21.70
2014,08,02,10,51,21.70
2014,08,02,10,52,21.90
2014,08,02,10,53,21.90
2014,08,02,10,54,21.90
2014,08,02,10,55,22.00
2014,08,02,10,56,22.10
2014,08,02,10,57,22.20
2014,08,02,10,58,22.30
2014,08,02,10,59,22.50
2014,08,02,11,00,22.60
2014,08,02,11,01,22.70
2014,08,02,11,02,22.90
2014,08,02,11,03,23.00
2014,08,02,11,04,23.10
2014,08,02,11,05,23.10
2014,08,02,11,06,23.20
2014,08,02,11,07,23.30
2014,08,02,11,08,23.20
2014,08,02,11,09,23.10
2014,08,02,11,10,23.10
2014,08,02,11,11,23.10
2014,08,02,11,12,23.10
2014,08,02,11,13,23.10
2014,08,02,11,14,23.10
2014,08,02,11,15,23.10
2014,08,02,11,16,23.10
2014,08,02,11,17,23.00
2014,08,02,11,18,22.90
2014,08,02,11,19,22.80
2014,08,02,11,20,22.60
2014,08,02,11,21,22.60
2014,08,02,11,22,22.40
2014,08,02,11,23,22.30
2014,08,02,11,24,22.40
2014,08,02,11,25,22.50
2014,08,02,11,26,22.60
2014,08,02,11,27,22.70
2014,08,02,11,28,22.70
2014,08,02,11,29,22.80
2014,08,02,11,30,22.80
2014,08,02,11,31,22.70
2014,08,02,11,32,22.60
2014,08,02,11,33,22.50
2014,08,02,11,34,22.40
2014,08,02,11,35,22.40
2014,08,02,11,36,22.50
2014,08,02,11,37,22.60
2014,08,02,11,38,22.60
2014,08,02,11,39,22.60
2014,08,02,11,40,22.60
2014,08,02,11,41,22.60
2014,08,02,11,42,22.70
2014,08,02,11,43,22.70
2014,08,02,11,44,22.70
2014,08,02,11,45,22.70
2014,08,02,11,46,22.60
2014,08,02,11,47,22.60
2014,08,02,11,48,22.60
2014,08,02,11,49,22.60
2014,08,02,11,50,22.60
2014,08,02,11,51,22.70
2014,08,02,11,52,22.80
2014,08,02,11,53,22.90
2014,08,02,11,54,22.90
2014,08,02,11,55,22.90
2014,08,02,11,56,22.80
2014,08,02,11,57,22.70
2014,08,02,11,58,22.70
2014,08,02,11,59,22.80
2014,08,02,12,00,22.80
2014,08,02,12,01,22.80
2014,08,02,12,02,22.80
2014,08,02,12,03,22.80
2014,08,02,12,04,22.70
2014,08,02,12,05,22.60
2014,08,02,12,06,22.50
2014,08,02,12,07,22.60
2014,08,02,12,08,22.80
2014,08,02,12,09,22.80
2014,08,02,12,10,22.80
2014,08,02,12,11,22.90
2014,08,02,12,12,22.90
2014,08,02,12,13,22.90
2014,08,02,12,14,22.90
2014,08,02,12,15,22.90
2014,08,02,12,16,23.10
2014,08,02,12,17,23.20
2014,08,02,12,18,23.30
2014,08,02,12,19,23.40
2014,08,02,12,20,23.50
2014,08,02,12,21,23.60
2014,08,02,12,22,23.70
2014,08,02,12,23,23.70
2014,08,02,12,24,23.70
2014,08,02,12,25,23.80
2014,08,02,12,26,23.90
2014,08,02,12,27,23.90
2014,08,02,12,28,24.00
2014,08,02,12,29,23.90
2014,08,02,12,30,23.90
2014,08,02,12,31,23.90
2014,08,02,12,32,23.80
2014,08,02,12,33,23.70
2014,08,02,12,34,23.50
2014,08,02,12,35,23.40
2014,08,02,12,36,23.30
2014,08,02,12,37,23.30
2014,08,02,12,38,23.30
2014,08,02,12,39,23.30
2014,08,02,12,40,23.30
2014,08,02,12,41,23.40
2014,08,02,12,42,23.40
2014,08,02,12,43,23.40
2014,08,02,12,44,23.50
2014,08,02,12,45,23.60
2014,08,02,12,46,23.70
2014,08,02,12,47,23.70
2014,08,02,12,48,23.70
2014,08,02,12,49,23.70
2014,08,02,12,50,23.70
2014,08,02,12,51,23.70
2014,08,02,12,52,23.70
2014,08,02,12,53,23.60
2014,08,02,12,54,23.60
2014,08,02,12,55,23.60
2014,08,02,12,56,23.60
2014,08,02,12,57,23.60
2014,08,02,12,58,23.60
2014,08,02,12,59,23.50
2014,08,02,13,00,23.40
2014,08,02,13,01,23.40
2014,08,02,13,02,23.40
2014,08,02,13,03,23.40
2014,08,02,13,04,23.40
2014,08,02,13,05,23.40
2014,08,02,13,06,23.50
2014,08,02,13,07,23.60
2014,08,02,13,08,23.60
2014,08,02,13,09,23.60
2014,08,02,13,10,23.60
2014,08,02,13,11,23.70
2014,08,02,13,12,23.70
2014,08,02,13,13,23.60
2014,08,02,13,14,23.60
2014,08,02,13,15,23.60
2014,08,02,13,16,23.70
2014,08,02,13,17,23.70
2014,08,02,13,18,23.70
2014,08,02,13,19,23.80
2014,08,02,13,20,23.80
2014,08,02,13,21,23.70
2014,08,02,13,22,23.80
2014,08,02,13,23,23.70
2014,08,02,13,24,23.70
2014,08,02,13,25,23.80
2014,08,02,13,26,23.90
2014,08,02,13,27,24.10
2014,08,02,13,28,24.20
2014,08,02,13,29,24.30
2014,08,02,13,30,24.40
2014,08,02,13,31,24.50
2014,08,02,13,32,24.70
2014,08,02,13,33,24.80
2014,08,02,13,34,24.70
2014,08,02,13,35,24.70
2014,08,02,13,36,24.70
2014,08,02,13,37,24.80
2014,08,02,13,38,24.80
2014,08,02,13,39,24.80
2014,08,02,13,40,24.80
2014,08,02,13,41,24.90
2014,08,02,13,42,24.90
2014,08,02,13,43,24.90
2014,08,02,13,44,24.80
2014,08,02,13,45,24.80
2014,08,02,13,46,24.90
2014,08,02,13,47,24.90
2014,08,02,13,48,25.00
2014,08,02,13,49,25.10
2014,08,02,13,50,25.30
2014,08,02,13,51,25.40
2014,08,02,13,52,25.60
2014,08,02,13,53,25.80
2014,08,02,13,54,26.00
2014,08,02,13,55,26.20
2014,08,02,13,56,26.40
2014,08,02,13,57,26.60
2014,08,02,13,58,26.80
2014,08,02,13,59,27.00
2014,08,02,14,00,27.10
2014,08,02,14,01,27.30
2014,08,02,14,02,27.50
2014,08,02,14,03,27.60
2014,08,02,14,04,27.70
2014,08,02,14,05,27.70
2014,08,02,14,06,27.80
2014,08,02,14,07,27.80
2014,08,02,14,08,27.80
2014,08,02,14,09,27.70
2014,08,02,14,10,27.70
2014,08,02,14,11,27.60
2014,08,02,14,12,27.50
2014,08,02,14,13,27.40
2014,08,02,14,14,27.40
2014,08,02,14,15,27.40
2014,08,02,14,16,27.40
2014,08,02,14,17,27.40
2014,08,02,14,18,27.30
2014,08,02,14,19,27.30
2014,08,02,14,20,27.20
2014,08,02,14,21,27.00
2014,08,02,14,22,26.80
2014,08,02,14,23,26.70
2014,08,02,14,24,26.70
2014,08,02,14,25,26.70
2014,08,02,14,26,26.80
2014,08,02,14,27,26.80
2014,08,02,14,28,26.80
2014,08,02,14,29,26.80
2014,08,02,14,30,26.80
2014,08,02,14,31,26.80
2014,08,02,14,32,26.90
2014,08,02,14,33,26.90
2014,08,02,14,34,26.80
2014,08,02,14,35,26.80
2014,08,02,14,36,26.70
2014,08,02,14,37,26.70
2014,08,02,14,38,26.70
2014,08,02,14,39,26.70
2014,08,02,14,40,26.70
2014,08,02,14,41,26.80
2014,08,02,14,42,26.90
2014,08,02,14,43,27.00
2014,08,02,14,44,27.10
2014,08,02,14,45,27.20
2014,08,02,14,46,27.30
2014,08,02,14,47,27.30
2014,08,02,14,48,27.50
2014,08,02,14,49,27.60
2014,08,02,14,50,27.60
2014,08,02,14,51,27.50
2014,08,02,14,52,27.40
2014,08,02,14,53,27.40
2014,08,02,14,54,27.30
2014,08,02,14,55,27.40
2014,08,02,14,56,27.60
2014,08,02,14,57,27.60
2014,08,02,14,58,27.60
2014,08,02,14,59,27.60
2014,08,02,15,00,27.40
2014,08,02,15,01,27.40
2014,08,02,15,02,27.50
2014,08,02,15,03,27.50
2014,08,02,15,04,27.60
2014,08,02,15,05,27.60
2014,08,02,15,06,27.50
2014,08,02,15,07,27.40
2014,08,02,15,08,27.40
2014,08,02,15,09,27.30
2014,08,02,15,10,27.30
2014,08,02,15,11,27.40
2014,08,02,15,12,27.40
2014,08,02,15,13,27.40
2014,08,02,15,14,27.50
2014,08,02,15,15,27.60
2014,08,02,15,16,27.50
2014,08,02,15,17,27.40
2014,08,02,15,18,27.30
2014,08,02,15,19,27.40
2014,08,02,15,20,27.40
2014,08,02,15,21,27.40
2014,08,02,15,22,27.40
2014,08,02,15,23,27.40
2014,08,02,15,24,27.40
2014,08,02,15,25,27.40
2014,08,02,15,26,27.30
2014,08,02,15,27,27.40
2014,08,02,15,28,27.40
2014,08,02,15,29,27.40
2014,08,02,15,30,27.40
2014,08,02,15,31,27.40
2014,08,02,15,32,27.40
2014,08,02,15,33,27.40
2014,08,02,15,34,27.40
2014,08,02,15,35,27.40
2014,08,02,15,36,27.40
2014,08,02,15,37,27.40
2014,08,02,15,38,27.50
2014,08,02,15,39,27.60
2014,08,02,15,40,27.60
2014,08,02,15,41,27.40
2014,08,02,15,42,27.60
2014,08,02,15,43,27.60
2014,08,02,15,44,27.60
2014,08,02,15,45,27.60
2014,08,02,15,46,27.70
2014,08,02,15,47,27.80
2014,08,02,15,48,27.90
2014,08,02,15,49,27.90
2014,08,02,15,50,27.90
2014,08,02,15,51,27.90
2014,08,02,15,52,27.90
2014,08,02,15,53,27.90
2014,08,02,15,54,27.90
2014,08,02,15,55,27.90
2014,08,02,15,56,27.80
2014,08,02,15,57,27.70
2014,08,02,15,58,27.70
2014,08,02,15,59,27.70
2014,08,02,16,00,27.70
2014,08,02,16,01,27.80
2014,08,02,16,02,27.90
2014,08,02,16,03,27.90
2014,08,02,16,04,27.90
2014,08,02,16,05,27.80
2014,08,02,16,06,27.90
2014,08,02,16,07,27.90
2014,08,02,16,08,28.00
2014,08,02,16,09,28.00
2014,08,02,16,10,28.00
2014,08,02,16,11,28.00
2014,08,02,16,12,28.00
2014,08,02,16,13,28.10
2014,08,02,16,14,28.20
2014,08,02,16,15,28.20
2014,08,02,16,16,28.20
2014,08,02,16,17,28.30
2014,08,02,16,18,28.20
2014,08,02,16,19,28.20
2014,08,02,16,20,28.20
2014,08,02,16,21,28.20
2014,08,02,16,22,28.20
2014,08,02,16,23,28.20
2014,08,02,16,24,28.20
2014,08,02,16,25,28.20
2014,08,02,16,26,28.20
2014,08,02,16,27,28.20
2014,08,02,16,28,28.10
2014,08,02,16,29,28.10
2014,08,02,16,30,28.00
2014,08,02,16,31,28.00
2014,08,02,16,32,27.90
2014,08,02,16,33,27.90
2014,08,02,16,34,27.90
2014,08,02,16,35,27.90
2014,08,02,16,36,27.80
2014,08,02,16,37,27.80
2014,08,02,16,38,27.70
2014,08,02,16,39,27.60
2014,08,02,16,40,27.60
2014,08,02,16,41,27.60
2014,08,02,16,42,27.60
2014,08,02,16,43,27.60
2014,08,02,16,44,27.40
2014,08,02,16,45,27.40
2014,08,02,16,46,27.40
2014,08,02,16,47,27.30
2014,08,02,16,48,27.30
2014,08,02,16,49,27.20
2014,08,02,16,50,27.20
2014,08,02,16,51,27.20
2014,08,02,16,52,27.20
2014,08,02,16,53,27.20
2014,08,02,16,54,27.20
2014,08,02,16,55,27.20
2014,08,02,16,56,27.10
2014,08,02,16,57,27.10
2014,08,02,16,58,27.10
2014,08,02,16,59,27.10
2014,08,02,17,00,27.00
2014,08,02,17,01,27.10
2014,08,02,17,02,27.10
2014,08,02,17,03,27.10
2014,08,02,17,04,27.00
2014,08,02,17,05,26.90
2014,08,02,17,06,27.10
2014,08,02,17,07,27.10
2014,08,02,17,08,27.10
2014,08,02,17,09,27.00
2014,08,02,17,10,26.90
2014,08,02,17,11,26.90
2014,08,02,17,12,26.90
2014,08,02,17,13,26.80
2014,08,02,17,14,26.80
2014,08,02,17,15,26.70
2014,08,02,17,16,26.70
2014,08,02,17,17,26.60
2014,08,02,17,18,26.60
2014,08,02,17,19,26.60